FW7261 Weather Reports


Display with metric or nautical units.
time (UTC)temp
F
wind
direction
speed
MPH
gust
MPH
rain 1hr
in
rain 24hr
in
rain mn
in
humidity
%
barometer
mb
20260502214113 62 248 0.0 0.0 0.00 0.00 0.00 68 1016.1
20260502213113 63 248 0.0 0.0 0.00 0.00 0.00 67 1016.1
20260502212113 65 248 0.0 0.0 0.00 0.00 0.00 64 1016.0
20260502211113 65 248 0.0 2.0 0.00 0.00 0.00 63 1015.8
20260502205112 65 266 0.0 0.0 0.00 0.00 0.00 65 1015.9
20260502204112 64 266 0.0 0.0 0.00 0.00 0.00 67 1015.9
20260502203112 65 266 0.0 0.0 0.00 0.00 0.00 65 1015.8
20260502202112 66 267 0.0 0.0 0.00 0.00 0.00 63 1015.8
20260502201112 67 266 0.0 0.0 0.00 0.00 0.00 62 1015.7
20260502200112 67 254 0.0 0.0 0.00 0.00 0.00 61 1015.7
20260502194112 68 253 0.0 0.0 0.00 0.00 0.00 61 1015.5
20260502192112 70 253 0.0 0.0 0.00 0.00 0.00 59 1015.5
20260502191112 72 253 0.0 0.0 0.00 0.00 0.00 54 1015.5
20260502190112 73 253 0.0 0.0 0.00 0.00 0.00 53 1015.4
20260502185112 73 253 0.0 0.0 0.00 0.00 0.00 52 1015.3
20260502184112 74 253 0.0 0.0 0.00 0.00 0.00 50 1015.3
20260502182111 76 276 0.0 0.0 0.00 0.00 0.00 45 1015.1
20260502181111 77 276 0.0 0.0 0.00 0.00 0.00 44 1015.1
20260502180111 78 278 0.0 1.0 0.00 0.00 0.00 43 1015.1
20260502170110 80 255 0.0 0.0 0.00 0.00 0.00 35 1015.2
20260502163110 80 255 0.0 0.0 0.00 0.00 0.00 36 1015.3
20260502162110 81 256 2.0 6.0 0.00 0.00 0.00 35 1015.5
20260502161110 81 247 0.0 3.0 0.00 0.00 0.00 34 1015.8
20260502160115 81 244 2.0 7.0 0.00 0.00 0.00 33 1015.8
20260502151114 82 249 1.0 5.0 0.00 0.00 0.00 34 1016.3
20260502150114 83 260 3.0 7.0 0.00 0.00 0.00 35 1016.4
20260502130113 81 249 2.0 5.0 0.00 0.00 0.00 39 1018.4
20260502123112 80 232 1.0 6.0 0.00 0.00 0.00 41 1018.9
20260502122112 79 214 2.0 8.0 0.00 0.00 0.00 41 1019.0
20260502121112 78 254 4.0 12.0 0.00 0.00 0.00 42 1019.2
20260502120112 79 249 4.0 8.0 0.00 0.00 0.00 42 1019.2
20260502115112 79 252 2.0 5.0 0.00 0.00 0.00 43 1019.4
20260502114112 78 255 2.0 6.0 0.00 0.00 0.00 43 1019.5
20260502113112 78 242 4.0 10.0 0.00 0.00 0.00 43 1019.8
20260502112112 77 280 3.0 9.0 0.00 0.00 0.00 45 1019.9
20260502111112 77 263 1.0 6.0 0.00 0.00 0.00 46 1019.9
20260502105111 76 264 3.0 9.0 0.00 0.00 0.00 47 1020.2
20260502104112 76 227 4.0 7.0 0.00 0.00 0.00 46 1020.4
20260502103112 75 247 2.0 7.0 0.00 0.00 0.00 48 1020.5
20260502101112 74 229 2.0 6.0 0.00 0.00 0.00 47 1020.7
20260502100111 73 247 5.0 9.0 0.00 0.00 0.00 47 1020.9
20260502091111 72 256 6.0 10.0 0.00 0.00 0.00 47 1021.4
20260502080110 66 244 0.0 1.0 0.00 0.00 0.00 53 1022.0
20260502071114 62 291 0.0 0.0 0.00 0.00 0.00 59 1022.3
20260502070114 61 350 0.0 0.0 0.00 0.00 0.00 62 1022.1
20260502065114 61 36 0.0 0.0 0.00 0.00 0.00 61 1022.4
20260502064114 60 250 0.0 0.0 0.00 0.00 0.00 61 1022.5
20260502063114 58 250 0.0 0.0 0.00 0.00 0.00 67 1022.5
20260502062114 57 250 0.0 0.0 0.00 0.00 0.00 68 1022.4
20260502061114 56 250 0.0 0.0 0.00 0.00 0.00 69 1022.3
20260502055114 53 250 0.0 0.0 0.00 0.00 0.00 73 1022.5
20260502053114 50 250 0.0 0.0 0.00 0.00 0.00 75 1022.4
20260502052113 50 80 0.0 0.0 0.00 0.00 0.00 76 1022.5
20260502051113 50 79 0.0 0.0 0.00 0.00 0.00 76 1022.4
20260502050113 50 79 0.0 0.0 0.00 0.00 0.00 76 1022.2
20260502045113 50 80 0.0 1.0 0.00 0.00 0.00 77 1022.1
20260502044113 48 80 0.0 1.0 0.00 0.00 0.00 80 1022.2
20260502043113 47 80 0.0 0.0 0.00 0.00 0.00 82 1022.1
20260502042113 46 80 0.0 0.0 0.00 0.00 0.00 82 1022.0
20260502041113 46 80 0.0 0.0 0.00 0.00 0.00 82 1022.3
20260502035113 46 326 0.0 0.0 0.00 0.00 0.00 82 1022.3
20260502034113 47 325 0.0 0.0 0.00 0.00 0.00 82 1022.3
20260502033112 47 325 0.0 0.0 0.00 0.00 0.00 81 1022.4
20260502032112 47 325 0.0 0.0 0.00 0.00 0.00 80 1022.4
20260502031112 48 325 0.0 0.0 0.00 0.00 0.00 80 1022.3
20260502030112 47 343 0.0 0.0 0.00 0.00 0.00 80 1022.4
20260502025112 47 343 0.0 0.0 0.00 0.00 0.00 80 1022.2
20260502024112 47 344 0.0 0.0 0.00 0.00 0.00 81 1022.3
20260502023112 47 344 0.0 0.0 0.00 0.00 0.00 81 1022.2
20260502022112 48 344 0.0 0.0 0.00 0.00 0.00 80 1022.2
20260502021112 47 320 0.0 0.0 0.00 0.00 0.00 81 1022.3
20260502015111 47 308 0.0 0.0 0.00 0.00 0.00 80 1022.3
20260502014111 47 308 0.0 0.0 0.00 0.00 0.00 81 1022.3
20260502013111 48 308 0.0 0.0 0.00 0.00 0.00 79 1022.4
20260502012111 48 308 0.0 0.0 0.00 0.00 0.00 78 1022.4
20260502011111 48 308 0.0 0.0 0.00 0.00 0.00 77 1022.4
20260502010111 48 308 0.0 0.0 0.00 0.00 0.00 76 1022.4
20260502004111 49 308 0.0 0.0 0.00 0.00 0.00 75 1022.4
20260502003111 49 308 0.0 0.0 0.00 0.00 0.00 73 1022.4
20260502001111 50 308 0.0 0.0 0.00 0.00 0.00 73 1022.4
20260502000111 50 308 0.0 0.0 0.00 0.00 0.00 74 1022.5
20260501234110 50 308 0.0 0.0 0.00 0.00 0.00 77 1022.5
20260501233110 50 282 0.0 0.0 0.00 0.00 0.00 77 1022.7
20260501232110 50 245 0.0 0.0 0.00 0.00 0.00 77 1022.6
20260501231110 51 245 0.0 0.0 0.00 0.00 0.00 74 1022.7
20260501230110 52 237 0.0 0.0 0.00 0.00 0.00 72 1022.7
20260501225110 53 237 0.0 0.0 0.00 0.00 0.00 71 1022.7
20260501224110 53 237 0.0 0.0 0.00 0.00 0.00 73 1022.7
20260501223110 52 318 0.0 0.0 0.00 0.00 0.00 75 1022.6
20260501222110 52 318 0.0 0.0 0.00 0.00 0.00 74 1022.7
20260501221110 53 318 0.0 0.0 0.00 0.00 0.00 74 1022.5
20260501220110 54 318 0.0 0.0 0.00 0.00 0.00 74 1022.6
20260501215114 54 315 0.0 0.0 0.00 0.00 0.00 73 1022.5